Temp
-6 -6 -6 -7 -8 -7 -7 -6 -5 -5 -6 -5 -6 -5 -5 -5 -5 -6 -6 -7 -7 -8 -8 -8 -9 -8 -8 -8 -8 -8 -8 -8 -8 -8 -8 -8 -8 -8 -8 -8 -8 -8 -8 -8 -8 -8 -8 -7 -7
-5 -6 -6 -7 -7 -7 -7 -6 -5 -6 -6 -6 -6 -6 -5 -6 -6 -6 -6 -7 -7 -8 -8 -8 -9 -9 -9 -8 -8 -8 -8 -8 -8 -8 -8 -8 -8 -8 -8 -9 -9 -9 -8 -8 -8 -8 -8 -8 -8
-6 -6 -6 -6 -7 -7 -7 -6 -5 -5 -6 -6 -6 -6 -6 -6 -6 -6 -7 -6 -6 -6 -7 -9 -9 -9 -9 -8 -9 -8 -8 -8 -9 -9 -9 -9 -9 -9 -9 -9 -9 -9 -9 -9 -9 -9 -9 -8 -8
-6 -6 -6 -7 -8 -7 -7 -6 -5 -6 -6 -7 -6 -6 -6 -6 -6 -6 -6 -5 -6 -6 -8 -9 -8 -9 -8 -8 -8 -8 -8 -9 -9 -9 -9 -9 -9 -9 -10 -10 -10 -10 -10 -10 -10 -10 -9 -9 -9
-5 -6 -7 -7 -7 -8 -7 -6 -5 -6 -7 -7 -6 -6 -6 -6 -6 -6 -6 -6 -6 -7 -8 -8 -8 -8 -8 -8 -8 -9 -9 -9 -9 -9 -9 -9 -10 -10 -10 -10 -10 -10 -10 -9 -9 -9 -9 -9 -9
-5 -5 -6 -7 -7 -7 -6 -6 -6 -7 -7 -6 -6 -6 -6 -6 -6 -6 -6 -6 -7 -7 -7 -8 -8 -8 -8 -8 -9 -9 -9 -9 -10 -10 -10 -10 -10 -10 -10 -10 -10 -10 -9 -9 -9 -9 -9 -8 -8
-5 -5 -6 -7 -7 -7 -6 -7 -7 -7 -6 -6 -6 -6 -6 -6 -6 -6 -7 -6 -7 -7 -8 -7 -7 -8 -8 -8 -9 -9 -9 -9 -9 -9 -10 -10 -10 -10 -10 -10 -10 -9 -9 -9 -9 -8 -8 -9 -8
-5 -5 -5 -7 -7 -7 -7 -7 -6 -7 -7 -6 -6 -6 -6 -6 -6 -7 -7 -7 -7 -7 -7 -7 -7 -8 -8 -8 -8 -8 -9 -9 -9 -9 -10 -10 -10 -9 -10 -10 -10 -9 -9 -9 -9 -9 -8 -8 -8
-5 -5 -6 -6 -7 -7 -7 -7 -7 -8 -8 -6 -6 -6 -6 -6 -7 -7 -7 -7 -7 -7 -7 -7 -7 -7 -8 -8 -8 -8 -9 -9 -9 -9 -9 -9 -9 -9 -9 -10 -10 -9 -9 -9 -9 -9 -9 -8 -8
-5 -5 -6 -6 -7 -7 -6 -7 -6 -7 -8 -7 -6 -7 -6 -6 -6 -7 -7 -6 -6 -7 -7 -7 -7 -7 -8 -8 -8 -8 -9 -9 -8 -9 -9 -9 -9 -9 -9 -9 -10 -9 -9 -9 -9 -9 -9 -9 -9
-5 -5 -6 -6 -6 -7 -6 -7 -7 -7 -7 -8 -6 -7 -6 -5 -5 -6 -6 -7 -6 -7 -7 -7 -7 -7 -7 -8 -8 -8 -8 -8 -8 -8 -8 -9 -9 -9 -9 -9 -9 -9 -9 -9 -9 -9 -9 -9 -9
-5 -5 -6 -6 -6 -6 -7 -7 -7 -8 -8 -7 -7 -6 -6 -6 -6 -6 -6 -6 -7 -7 -7 -7 -7 -7 -8 -8 -8 -8 -8 -8 -8 -8 -8 -9 -8 -9 -8 -8 -9 -9 -9 -9 -9 -9 -9 -9 -9
-5 -5 -6 -7 -7 -7 -7 -7 -7 -8 -8 -8 -7 -7 -6 -6 -6 -6 -6 -7 -7 -7 -7 -7 -7 -7 -8 -8 -8 -8 -8 -9 -9 -9 -9 -9 -9 -9 -9 -9 -9 -9 -9 -9 -9 -9 -9 -9 -9
-5 -6 -6 -7 -7 -7 -7 -7 -7 -8 -9 -8 -8 -7 -7 -6 -6 -7 -7 -7 -7 -7 -7 -7 -7 -7 -8 -8 -8 -8 -8 -9 -9 -9 -9 -9 -9 -9 -9 -9 -9 -9 -9 -10 -10 -10 -10 -9 -10
-6 -6 -6 -7 -7 -7 -8 -7 -7 -8 -9 -8 -8 -8 -7 -7 -7 -7 -7 -7 -7 -7 -7 -7 -7 -8 -8 -8 -8 -8 -8 -8 -8 -9 -9 -9 -9 -9 -9 -9 -9 -9 -9 -9 -10 -10 -10 -10 -10
-7 -7 -7 -7 -7 -7 -8 -8 -8 -8 -8 -9 -9 -10 -9 -7 -7 -7 -7 -7 -7 -7 -7 -7 -8 -8 -9 -9 -9 -9 -9 -8 -8 -9 -9 -9 -9 -9 -9 -9 -9 -9 -9 -10 -10 -10 -10 -10 -10
-7 -7 -7 -7 -7 -8 -8 -8 -7 -8 -8 -9 -9 -10 -10 -9 -8 -7 -7 -8 -8 -8 -8 -8 -8 -8 -9 -9 -9 -9 -9 -9 -9 -9 -9 -9 -9 -10 -10 -10 -9 -9 -9 -10 -9 -10 -10 -10 -10
-8 -8 -7 -7 -7 -7 -8 -8 -8 -8 -8 -9 -9 -10 -9 -10 -9 -8 -8 -8 -8 -8 -8 -8 -9 -9 -9 -9 -10 -10 -10 -10 -10 -10 -10 -10 -10 -10 -10 -10 -10 -9 -10 -10 -10 -10 -10 -10 -10
-8 -9 -9 -9 -8 -8 -8 -8 -8 -8 -8 -9 -10 -10 -9 -10 -10 -9 -8 -9 -8 -8 -9 -9 -9 -9 -10 -10 -10 -10 -9 -10 -10 -10 -10 -11 -11 -11 -10 -10 -10 -10 -10 -10 -10 -10 -10 -10 -10
-8 -9 -9 -9 -9 -9 -8 -8 -8 -8 -9 -9 -9 -10 -9 -10 -10 -9 -9 -8 -8 -8 -9 -9 -9 -9 -9 -9 -9 -9 -9 -10 -10 -10 -10 -11 -11 -11 -11 -11 -11 -11 -10 -10 -10 -10 -10 -10 -11
-8 -9 -9 -9 -9 -8 -8 -8 -8 -8 -8 -8 -9 -9 -9 -9 -10 -9 -9 -9 -9 -9 -9 -8 -9 -9 -9 -9 -10 -9 -9 -9 -10 -10 -10 -10 -11 -11 -11 -11 -11 -11 -11 -11 -10 -10 -10 -11 -11
-7 -8 -9 -9 -9 -9 -9 -8 -8 -9 -8 -8 -8 -9 -9 -9 -10 -10 -9 -9 -10 -9 -9 -9 -9 -9 -9 -9 -9 -9 -9 -9 -9 -10 -10 -10 -10 -10 -11 -12 -12 -12 -12 -11 -11 -11 -11 -11 -11
-7 -8 -8 -8 -9 -9 -9 -9 -8 -8 -8 -8 -9 -9 -9 -10 -10 -10 -9 -9 -10 -10 -9 -9 -9 -9 -9 -9 -9 -10 -10 -9 -10 -9 -9 -10 -10 -11 -11 -12 -11 -11 -11 -11 -12 -11 -11 -11 -12
-8 -7 -8 -8 -8 -9 -8 -9 -8 -8 -8 -8 -8 -9 -9 -9 -10 -10 -9 -9 -9 -10 -10 -10 -9 -9 -9 -9 -10 -10 -10 -10 -10 -10 -9 -10 -10 -11 -11 -11 -11 -11 -11 -12 -12 -12 -12 -12 -11
-9 -8 -8 -8 -9 -8 -8 -8 -8 -8 -7 -8 -9 -8 -8 -9 -9 -9 -9 -9 -9 -10 -10 -10 -10 -10 -10 -10 -10 -10 -10 -10 -10 -10 -10 -10 -10 -10 -10 -11 -11 -11 -11 -11 -12 -12 -12 -12 -12
-9 -9 -9 -9 -9 -8 -8 -8 -8 -8 -8 -8 -8 -8 -8 -9 -9 -9 -9 -9 -9 -10 -10 -10 -10 -9 -10 -10 -10 -10 -10 -10 -10 -11 -11 -11 -10 -10 -10 -10 -11 -11 -12 -12 -12 -12 -13 -12 -12
-9 -9 -9 -9 -9 -9 -8 -8 -8 -8 -8 -8 -9 -9 -8 -8 -9 -9 -9 -9 -9 -9 -10 -9 -9 -11 -10 -10 -10 -11 -11 -10 -11 -11 -11 -11 -11 -11 -10 -11 -10 -10 -11 -11 -11 -12 -12 -13 -13
-9 -9 -9 -9 -9 -9 -9 -9 -9 -9 -9 -9 -9 -9 -8 -8 -9 -9 -8 -9 -9 -9 -10 -10 -9 -9 -10 -11 -11 -11 -11 -11 -11 -11 -11 -11 -11 -11 -11 -11 -11 -12 -12 -12 -12 -12 -12 -13 -13
-10 -10 -9 -9 -9 -9 -9 -9 -9 -9 -10 -10 -10 -10 -9 -9 -9 -9 -9 -9 -9 -9 -10 -10 -10 -9 -7 -9 -11 -11 -11 -11 -11 -11 -11 -11 -11 -11 -11 -12 -12 -12 -12 -12 -12 -13 -13 -13 -13
-11 -10 -10 -10 -10 -10 -10 -9 -9 -9 -10 -10 -10 -10 -10 -10 -9 -10 -9 -9 -9 -9 -9 -10 -9 -10 -9 -10 -10 -11 -13 -11 -11 -10 -11 -11 -11 -11 -11 -12 -13 -13 -13 -13 -13 -13 -13 -13 -14
Height
5908 5908 5908 5909 5913 5909 5907 5906 5903 5901 5900 5900 5899 5898 5898 5897 5896 5898 5894 5893 5893 5893 5893 5892 5892 5892 5892 5892 5892 5891 5891 5890 5889 5888 5887 5886 5885 5885 5884 5883 5882 5881 5880 5879 5878 5877 5876 5875 5875
5907 5909 5909 5909 5912 5909 5908 5905 5903 5902 5901 5900 5900 5899 5898 5897 5896 5895 5894 5893 5893 5892 5891 5891 5893 5893 5892 5891 5891 5890 5889 5888 5888 5887 5886 5885 5885 5884 5882 5881 5880 5879 5877 5876 5876 5875 5874 5873 5872
5907 5908 5910 5911 5911 5909 5908 5906 5904 5903 5902 5901 5900 5899 5898 5898 5897 5895 5893 5893 5892 5891 5892 5892 5893 5893 5892 5891 5890 5889 5888 5887 5886 5885 5884 5884 5884 5883 5881 5880 5879 5877 5875 5874 5873 5872 5870 5869 5869
5908 5911 5912 5913 5911 5910 5909 5906 5905 5901 5901 5900 5899 5900 5898 5897 5897 5895 5894 5894 5893 5893 5892 5892 5893 5892 5892 5891 5889 5888 5887 5886 5885 5883 5882 5882 5882 5882 5881 5880 5878 5875 5874 5873 5872 5871 5870 5869 5868
5907 5910 5913 5914 5912 5911 5909 5907 5904 5901 5901 5899 5899 5899 5897 5897 5897 5896 5895 5894 5893 5893 5892 5893 5893 5893 5892 5891 5889 5889 5888 5887 5885 5883 5881 5880 5881 5881 5881 5880 5878 5876 5874 5873 5872 5871 5870 5869 5867
5908 5910 5914 5913 5913 5912 5909 5906 5902 5901 5901 5898 5898 5897 5896 5897 5897 5896 5895 5894 5893 5893 5893 5893 5893 5893 5892 5891 5889 5889 5888 5886 5885 5884 5881 5880 5880 5881 5881 5880 5878 5876 5874 5873 5871 5870 5869 5868 5866
5907 5909 5913 5912 5913 5912 5909 5907 5903 5902 5901 5900 5898 5897 5896 5897 5897 5896 5896 5894 5893 5894 5894 5894 5894 5893 5892 5890 5889 5888 5887 5886 5885 5883 5881 5880 5879 5880 5880 5879 5878 5876 5873 5872 5871 5870 5868 5866 5865
5907 5909 5911 5912 5912 5912 5909 5907 5905 5904 5902 5902 5900 5899 5898 5898 5897 5897 5896 5895 5895 5895 5895 5894 5894 5893 5892 5890 5889 5888 5887 5886 5885 5884 5882 5880 5878 5879 5879 5879 5879 5876 5872 5871 5870 5869 5868 5867 5865
5905 5909 5911 5912 5912 5911 5909 5908 5906 5905 5903 5903 5902 5900 5900 5899 5898 5898 5898 5897 5897 5897 5896 5895 5894 5894 5893 5891 5889 5889 5888 5887 5886 5885 5883 5880 5878 5879 5879 5879 5878 5875 5872 5871 5870 5868 5867 5867 5865
5903 5907 5910 5911 5911 5911 5910 5908 5907 5906 5903 5904 5904 5902 5903 5901 5900 5899 5897 5898 5899 5898 5897 5896 5895 5894 5894 5892 5890 5890 5889 5888 5886 5885 5883 5881 5879 5879 5879 5879 5878 5876 5873 5871 5870 5869 5867 5865 5864
5902 5905 5909 5910 5910 5910 5910 5909 5906 5905 5904 5903 5903 5903 5903 5902 5899 5898 5898 5899 5900 5900 5899 5897 5896 5895 5894 5893 5891 5890 5889 5888 5887 5886 5884 5882 5880 5879 5879 5878 5877 5875 5874 5871 5870 5869 5868 5866 5864
5901 5903 5909 5909 5909 5910 5911 5909 5906 5905 5905 5903 5903 5904 5903 5902 5900 5899 5898 5899 5900 5900 5900 5899 5897 5896 5895 5894 5892 5890 5890 5889 5888 5887 5885 5883 5881 5879 5878 5878 5877 5875 5873 5871 5870 5868 5866 5866 5865
5900 5902 5905 5908 5908 5909 5911 5909 5906 5905 5904 5904 5903 5903 5902 5901 5900 5899 5899 5899 5900 5900 5900 5899 5899 5898 5895 5894 5893 5892 5891 5890 5889 5887 5885 5883 5881 5880 5879 5877 5876 5875 5872 5870 5869 5868 5866 5865 5863
5899 5901 5903 5906 5907 5908 5910 5909 5907 5905 5904 5903 5901 5900 5901 5901 5901 5900 5900 5899 5899 5900 5899 5899 5899 5898 5897 5895 5894 5892 5891 5890 5890 5889 5886 5884 5881 5879 5877 5875 5874 5874 5873 5870 5867 5866 5865 5864 5862
5897 5899 5901 5903 5906 5907 5909 5908 5907 5905 5904 5903 5901 5900 5901 5901 5901 5901 5901 5900 5900 5900 5900 5899 5898 5898 5897 5896 5894 5892 5890 5889 5888 5888 5886 5884 5881 5879 5877 5875 5873 5871 5870 5869 5865 5863 5860 5859 5858
5894 5896 5899 5902 5903 5906 5908 5909 5908 5906 5904 5903 5902 5901 5901 5901 5901 5900 5900 5900 5900 5900 5899 5899 5898 5896 5896 5894 5892 5890 5889 5887 5886 5884 5883 5881 5880 5878 5876 5874 5871 5869 5866 5865 5864 5861 5858 5856 5854
5891 5893 5895 5899 5901 5903 5906 5908 5908 5905 5904 5904 5903 5903 5901 5900 5900 5900 5899 5899 5898 5898 5898 5897 5896 5895 5893 5892 5890 5887 5886 5884 5882 5880 5880 5878 5876 5873 5871 5869 5868 5866 5864 5862 5861 5859 5856 5853 5850
5887 5889 5892 5895 5899 5901 5903 5905 5907 5904 5903 5903 5904 5904 5903 5901 5899 5899 5899 5899 5897 5895 5894 5893 5893 5891 5890 5888 5885 5884 5882 5880 5877 5876 5876 5874 5872 5870 5868 5866 5864 5862 5860 5859 5856 5855 5853 5850 5847
5883 5885 5888 5890 5893 5897 5900 5901 5904 5903 5903 5903 5903 5903 5903 5901 5899 5898 5898 5897 5896 5894 5893 5891 5890 5889 5886 5884 5882 5880 5878 5874 5872 5871 5870 5869 5868 5868 5867 5864 5862 5860 5858 5856 5853 5851 5849 5847 5846
5879 5882 5884 5886 5888 5891 5894 5897 5897 5901 5902 5901 5901 5901 5901 5900 5899 5898 5896 5896 5894 5893 5891 5889 5888 5886 5884 5884 5881 5879 5873 5870 5867 5865 5863 5863 5863 5861 5859 5858 5856 5855 5853 5851 5850 5848 5846 5844 5843
5873 5878 5881 5882 5883 5884 5887 5890 5893 5895 5900 5900 5900 5899 5898 5898 5897 5896 5896 5894 5892 5891 5888 5887 5885 5884 5881 5882 5880 5877 5873 5870 5866 5863 5860 5859 5859 5856 5852 5851 5851 5848 5847 5847 5845 5843 5840 5838 5837
5870 5875 5877 5877 5879 5880 5881 5883 5886 5889 5893 5896 5897 5896 5896 5895 5894 5892 5892 5891 5890 5888 5887 5885 5882 5881 5879 5877 5875 5872 5870 5867 5863 5859 5855 5852 5852 5849 5847 5844 5844 5843 5840 5840 5838 5836 5835 5832 5829
5866 5868 5870 5871 5873 5875 5877 5879 5880 5884 5888 5892 5894 5894 5892 5891 5890 5889 5888 5888 5886 5884 5882 5880 5879 5877 5875 5871 5870 5868 5865 5862 5858 5856 5852 5848 5845 5845 5843 5840 5839 5837 5834 5831 5831 5830 5829 5827 5823
5859 5862 5864 5866 5867 5866 5872 5873 5874 5879 5883 5887 5890 5890 5889 5887 5887 5887 5885 5883 5882 5881 5877 5876 5875 5874 5871 5868 5866 5863 5860 5857 5854 5851 5848 5845 5842 5840 5838 5834 5832 5829 5826 5825 5823 5822 5820 5818 5815
5853 5857 5858 5860 5859 5862 5866 5865 5868 5873 5877 5880 5884 5885 5884 5883 5882 5881 5881 5879 5879 5877 5873 5871 5871 5869 5867 5864 5862 5860 5856 5852 5848 5846 5843 5841 5838 5836 5832 5829 5826 5823 5820 5818 5816 5813 5811 5807 5805
5845 5849 5851 5852 5855 5859 5859 5857 5861 5869 5870 5873 5877 5879 5880 5879 5879 5877 5877 5876 5875 5872 5868 5866 5866 5862 5858 5856 5854 5853 5850 5846 5842 5841 5839 5836 5834 5831 5827 5824 5820 5817 5814 5811 5810 5806 5802 5797 5793
5840 5842 5845 5845 5848 5849 5851 5854 5856 5862 5864 5866 5869 5871 5874 5874 5875 5874 5873 5871 5868 5863 5858 5855 5856 5851 5850 5847 5846 5843 5841 5839 5837 5834 5832 5830 5827 5824 5821 5817 5814 5811 5807 5803 5800 5796 5793 5788 5783
5833 5837 5839 5839 5840 5842 5843 5848 5850 5855 5858 5859 5860 5862 5864 5867 5868 5867 5864 5862 5861 5857 5850 5850 5836 5827 5831 5832 5833 5835 5835 5832 5830 5829 5826 5824 5821 5818 5814 5811 5806 5801 5798 5794 5791 5786 5781 5775 5770
5828 5831 5833 5834 5834 5835 5835 5839 5846 5848 5850 5852 5853 5854 5857 5858 5859 5859 5857 5857 5855 5852 5848 5842 5842 5832 5813 5804 5823 5825 5830 5827 5824 5822 5820 5817 5813 5809 5806 5802 5798 5793 5788 5784 5780 5774 5768 5762 5756
5822 5827 5828 5828 5828 5828 5830 5833 5840 5842 5844 5845 5846 5847 5847 5848 5850 5851 5851 5849 5849 5847 5844 5838 5835 5823 5811 5811 5814 5817 5822 5821 5817 5815 5812 5809 5804 5800 5796 5792 5786 5781 5778 5773 5767 5762 5756 5749 5744
Wind_Speed
4 6 6 7 9 7 14 14 11 16 18 17 18 16 13 12 10 6 4 3 2 2 3 5 4 5 8 7 7 8 9 9 10 10 10 11 12 13 14 14 15 16 16 15 15 14 13 14 14
3 6 7 13 8 7 13 12 11 16 19 19 18 17 16 14 10 9 8 8 5 6 9 7 7 7 7 7 8 9 10 11 11 12 13 14 15 15 16 15 16 16 15 14 14 15 15 15 15
8 15 16 14 9 8 8 7 10 17 20 19 18 19 18 14 12 11 13 13 10 11 8 6 5 5 5 7 8 9 10 12 13 13 14 14 14 13 14 15 16 17 16 15 15 14 14 13 13
10 13 13 11 6 4 5 3 6 18 17 17 18 18 16 14 10 12 13 10 9 8 7 5 5 4 4 6 9 10 12 12 13 14 15 16 15 15 16 16 15 15 16 16 13 12 12 11 10
9 7 10 12 4 5 3 4 14 18 20 16 15 16 15 12 11 11 9 8 9 9 8 5 4 4 4 6 8 11 12 13 14 15 15 16 16 15 13 11 12 13 13 12 10 10 10 12 12
8 5 13 9 5 4 5 11 20 21 20 19 17 15 14 10 12 11 9 9 10 8 7 5 4 5 5 7 9 10 12 13 14 15 16 16 15 13 12 10 10 11 11 10 10 10 12 14 14
7 9 11 9 5 3 6 13 20 21 19 20 17 15 13 10 13 11 9 9 8 6 4 5 5 6 8 9 10 10 10 11 13 15 17 18 15 11 9 8 9 11 11 11 10 11 12 13 13
9 10 10 11 7 3 9 12 16 19 20 19 17 15 12 12 12 9 9 8 5 4 5 6 6 6 8 9 10 12 13 14 14 16 17 16 12 9 9 6 8 12 11 11 12 12 12 13 15
11 8 6 9 6 5 9 11 14 17 20 16 15 15 11 10 10 8 7 6 5 4 4 6 7 8 10 12 13 14 14 13 12 13 14 12 11 11 8 7 8 11 13 12 12 9 12 12 14
13 7 5 4 2 3 8 12 11 16 16 13 14 14 10 8 9 10 10 8 5 4 5 7 8 11 12 14 14 14 14 14 12 12 11 11 11 11 10 10 9 12 11 10 9 6 10 11 11
15 9 5 4 1 3 7 7 11 11 11 12 13 12 10 10 12 12 10 8 7 6 7 9 10 11 12 13 14 13 13 12 12 12 11 9 10 10 10 9 10 10 10 11 10 7 8 9 9
16 11 5 4 1 2 10 5 8 9 10 11 11 11 10 10 12 11 10 10 9 8 7 8 10 11 11 10 11 11 10 11 10 10 10 9 10 10 9 10 10 9 10 10 11 10 9 9 9
17 13 7 4 4 3 10 2 8 8 7 11 10 11 10 10 10 9 8 9 9 8 7 8 8 7 8 9 8 9 10 11 10 9 9 10 9 11 12 11 10 10 10 10 10 12 12 10 9
15 13 12 9 7 6 7 4 4 6 4 9 11 10 8 8 8 8 6 6 5 4 5 6 6 6 6 7 7 8 9 11 13 15 16 15 14 13 15 16 15 15 16 18 18 16 15 15 14
18 16 14 13 10 8 4 5 4 5 5 6 8 9 7 5 6 5 4 4 3 4 4 4 6 8 10 9 10 12 12 13 14 16 19 21 22 19 17 19 20 18 16 17 20 22 23 22 20
21 20 18 15 14 9 7 3 4 4 3 5 7 11 10 4 2 1 2 2 3 4 5 7 6 7 10 11 13 15 18 18 18 19 19 22 23 23 22 22 18 18 17 15 17 19 21 23 25
27 25 21 18 17 15 11 9 10 6 5 5 5 9 10 8 4 1 3 4 3 5 7 9 9 10 11 13 15 17 19 20 21 21 21 22 22 21 23 23 20 20 17 15 17 17 17 18 22
32 30 27 24 20 19 17 16 10 7 9 9 4 5 7 10 8 3 1 3 6 7 9 11 12 10 11 13 14 16 18 21 21 21 22 23 23 22 23 24 23 23 20 18 18 16 15 19 20
36 36 33 30 28 23 23 22 17 14 9 11 6 2 1 7 10 2 6 6 6 5 7 7 7 7 8 11 14 16 23 23 19 18 21 24 21 23 24 25 26 26 24 22 20 18 20 18 17
39 40 36 34 32 30 27 23 21 14 11 13 11 8 4 4 7 3 1 3 6 6 5 6 7 9 10 14 15 15 11 17 19 21 22 25 18 21 22 24 24 28 28 28 26 24 23 24 22
36 41 41 38 36 35 33 30 26 22 17 16 11 10 6 4 8 8 6 5 6 9 8 9 11 10 8 8 8 8 12 10 9 7 8 8 12 17 20 23 27 28 28 29 29 29 27 25 24
35 37 43 43 42 40 38 36 31 29 23 21 16 15 8 6 9 14 14 9 7 10 9 8 10 11 11 11 5 4 6 8 9 7 11 9 16 22 25 21 26 33 34 35 31 33 31 28 28
32 36 41 43 48 48 45 41 40 36 28 19 18 16 12 10 10 15 17 13 11 13 13 13 12 12 10 8 11 7 7 9 8 12 11 17 21 24 23 18 25 28 29 31 37 37 27 27 29
35 34 37 40 44 49 46 47 45 37 28 20 21 23 20 15 15 16 18 18 18 19 20 19 18 18 14 10 9 9 8 9 10 13 14 17 20 17 20 20 27 27 30 24 23 23 26 26 32
35 36 38 41 44 46 43 46 42 32 25 22 21 23 25 21 20 23 21 21 21 24 28 26 21 20 16 12 11 11 10 11 13 14 16 17 18 19 25 29 29 24 29 37 34 33 37 34 35
33 38 39 40 41 40 41 43 40 29 28 23 24 26 26 25 23 26 26 25 27 28 30 32 28 24 23 18 15 13 12 13 15 18 17 18 19 20 25 27 26 24 31 20 38 37 38 41 42
32 34 36 38 39 41 42 40 36 29 25 27 29 30 26 22 25 25 27 30 33 35 37 37 34 30 24 23 17 12 14 16 19 20 22 22 23 26 29 27 26 33 32 32 37 41 43 43 43
33 33 34 36 37 37 40 37 36 31 32 33 33 33 26 23 23 27 31 34 36 39 44 51 41 34 32 29 17 14 17 18 20 21 20 24 25 27 30 30 32 32 35 36 39 42 45 46 48
32 32 34 36 37 38 41 39 29 29 24 21 26 30 27 27 30 22 24 27 30 33 43 42 38 31 22 22 11 15 21 20 20 22 24 24 27 31 33 33 33 35 37 39 43 45 46 46 49
31 29 30 33 38 40 40 40 28 27 27 28 26 24 20 26 23 25 26 30 32 35 31 35 41 42 31 36 24 22 23 25 25 25 27 28 31 33 35 34 34 36 40 43 45 47 49 49 49
Wind_Direction
158 131 137 133 115 11 27 27 42 62 67 66 58 54 55 51 44 48 59 66 88 93 63 54 1 333 339 347 356 342 339 339 340 328 328 328 322 319 320 322 320 318 317 316 313 308 305 302 302
167 156 139 127 114 30 27 16 49 67 66 64 57 50 46 44 53 55 59 58 83 82 61 38 14 357 354 356 350 353 344 342 336 330 323 322 324 325 329 329 328 325 322 318 314 312 310 308 307
110 124 123 117 108 51 18 26 61 68 65 58 50 42 37 40 50 53 55 40 31 38 30 32 11 343 347 348 353 345 338 331 326 322 319 317 321 324 332 334 332 328 324 317 313 308 304 299 297
145 124 125 126 98 45 8 11 42 50 47 44 40 29 31 29 24 25 30 22 20 20 26 22 12 12 11 346 337 336 332 327 324 323 321 322 327 333 344 346 346 351 352 349 351 345 340 334 330
188 173 130 127 92 57 23 40 54 46 43 35 32 20 21 24 21 24 18 21 23 25 44 47 41 26 4 349 350 345 336 330 326 325 323 327 335 344 0 3 4 355 348 358 356 347 338 329 323
203 156 133 145 114 62 48 44 54 38 36 28 19 16 19 18 10 17 16 15 35 40 50 60 43 26 12 7 359 356 348 345 336 332 336 340 348 1 10 17 8 359 359 359 359 350 341 334 332
188 159 132 171 158 75 45 48 55 38 31 32 21 28 29 10 6 8 14 10 33 33 75 73 53 36 32 27 19 15 7 0 355 351 352 350 356 9 16 28 9 355 357 4 356 356 356 356 351
209 182 155 176 187 96 63 50 51 40 28 43 34 34 29 8 7 18 14 356 19 86 99 83 67 48 32 30 21 13 9 8 3 1 360 354 349 9 18 29 354 353 353 14 20 15 21 19 18
227 197 181 191 177 89 63 46 46 40 29 44 34 28 24 31 26 35 30 27 42 95 92 74 61 41 26 25 18 12 9 10 4 5 359 356 352 8 13 41 11 0 1 20 32 39 35 30 25
240 217 184 217 169 81 43 50 29 31 27 32 43 36 30 39 45 48 53 48 27 60 62 60 43 37 33 34 31 26 23 23 21 13 7 0 7 13 12 21 14 359 11 15 32 27 24 24 25
250 250 159 212 205 54 19 64 38 27 20 10 43 37 35 40 53 55 59 53 34 42 47 56 54 48 52 48 43 37 30 30 30 26 17 8 0 5 14 16 18 13 9 3 13 1 13 18 20
248 266 177 263 213 18 24 62 50 25 18 9 23 36 41 50 54 59 62 46 30 29 42 50 51 65 63 49 44 41 34 28 27 20 16 15 11 7 13 13 21 6 356 351 342 341 340 355 357
251 264 277 258 237 278 16 59 67 45 17 11 13 31 37 53 53 59 65 55 31 27 30 34 40 48 39 42 33 24 15 6 2 357 348 347 349 346 346 353 354 354 336 324 318 316 317 319 319
250 257 270 272 260 279 11 318 71 95 32 9 14 16 33 51 57 46 51 58 40 28 20 22 21 7 14 18 1 356 352 345 342 334 332 329 326 328 329 331 331 333 330 321 319 315 311 307 309
247 251 260 268 265 269 348 327 345 119 77 36 26 27 7 58 52 51 28 24 4 358 358 358 359 339 341 343 338 330 330 328 326 331 327 322 318 318 320 324 324 322 322 318 313 312 310 309 305
246 254 254 262 267 269 283 289 260 157 117 61 30 40 18 7 63 39 2 314 297 332 320 317 326 325 323 325 322 323 323 319 321 321 323 325 322 317 318 315 313 313 316 321 318 310 308 303 305
243 248 254 261 267 260 269 300 274 181 156 97 60 19 18 352 327 308 271 282 285 300 308 318 312 306 310 312 315 313 315 317 318 318 321 322 321 312 309 305 305 306 300 308 323 319 313 318 309
239 247 255 259 264 269 270 277 289 227 183 148 128 9 352 348 325 288 3 321 327 317 318 318 313 319 316 315 317 314 311 304 308 312 319 321 316 308 305 306 306 307 302 305 314 319 318 318 316
231 237 246 256 261 265 273 269 285 268 189 160 153 161 320 336 328 327 95 71 28 334 290 304 303 296 293 295 300 300 312 294 299 304 305 310 314 316 315 314 313 307 301 303 304 312 312 312 309
228 233 242 250 255 262 265 270 278 291 225 187 196 203 238 280 316 192 196 349 328 311 295 259 261 270 291 302 292 306 347 336 311 290 301 307 302 308 301 300 308 310 305 302 302 306 309 313 310
232 231 238 244 253 263 268 271 276 279 261 249 209 205 213 277 273 256 232 322 311 332 297 285 269 257 265 269 327 334 350 348 343 333 355 353 313 327 322 310 294 294 299 303 301 300 301 306 306
235 238 236 241 249 253 263 269 268 276 285 268 244 215 215 258 265 270 258 301 309 325 333 304 282 270 262 267 292 312 326 329 330 330 353 337 330 331 333 314 320 320 297 288 291 292 295 304 307
237 234 236 243 248 251 255 262 268 271 278 268 248 232 216 227 245 269 273 280 286 299 300 298 311 310 276 284 296 297 305 324 328 329 339 337 341 335 333 303 314 309 314 314 301 280 294 298 304
238 237 240 243 248 252 259 262 265 268 271 253 258 251 245 228 244 262 276 280 284 290 294 288 295 300 277 293 303 306 303 318 320 335 340 337 334 327 328 320 315 313 309 303 326 315 307 299 295
239 239 243 244 248 253 260 262 262 268 268 261 251 257 253 240 236 248 258 271 281 295 285 285 280 286 275 297 290 290 301 320 324 328 327 329 329 325 327 320 317 313 310 296 288 314 312 308 305
235 239 242 248 253 260 259 259 263 267 275 260 249 257 269 250 242 252 269 279 284 282 281 282 278 269 277 276 281 290 304 313 317 313 315 315 318 325 326 320 313 316 318 294 281 304 306 306 300
240 240 243 246 249 252 256 258 261 270 270 265 260 260 268 266 258 255 268 276 276 278 269 267 262 249 259 257 267 277 295 304 306 308 307 312 312 314 319 315 313 305 303 303 302 300 300 302 301
243 243 245 247 251 253 259 258 261 268 268 267 274 274 268 249 251 265 275 271 281 288 281 289 287 232 237 245 250 280 290 295 302 303 306 308 307 309 310 306 306 304 304 302 300 300 303 304 304
246 245 248 252 253 254 256 259 255 262 265 269 260 265 269 266 254 274 272 267 280 286 285 301 285 303 254 212 244 272 284 290 292 295 300 304 306 309 307 306 304 303 302 301 302 302 301 300 300
252 251 253 255 255 255 261 264 263 262 262 271 267 271 271 275 267 261 267 280 283 284 292 294 289 299 276 305 295 272 275 284 284 287 294 302 312 308 307 305 303 302 302 303 303 302 301 303 301